Wind_Speed
6 7 9 10 10 10 10 9 8 7 5 3 1 3 5 3 2 2 2 4 6 8 9 10 7 7 3 3 2 1 4 1 2 3 5 10 7 3 12 16 6 11 7 4 1
7 8 9 11 10 11 11 9 8 7 5 3 2 4 6 5 2 1 3 7 8 6 6 6 4 2 1 2 3 4 3 4 3 3 4 5 6 14 8 14 5 16 14 5 5
8 8 8 10 12 11 11 11 8 6 5 4 3 3 6 6 3 4 2 4 5 6 7 8 3 5 1 4 4 4 4 4 9 10 6 7 13 11 6 5 18 18 19 7 8
8 9 10 10 10 12 12 10 9 7 5 6 4 2 3 5 3 4 2 3 5 4 7 6 7 4 2 1 1 0 7 7 7 9 10 7 12 8 9 17 21 18 16 13 10
6 8 9 11 11 13 11 10 10 7 6 6 4 4 3 4 5 5 3 1 4 2 4 4 5 2 1 3 7 3 3 5 12 17 14 15 11 5 15 23 11 12 11 9 13
9 9 9 12 14 14 11 12 9 7 7 7 6 7 4 3 6 5 1 0 5 5 2 3 2 2 2 3 1 3 8 15 14 16 11 6 4 2 10 17 16 13 14 15 14
9 9 9 10 14 15 12 12 8 5 6 7 8 7 7 10 7 4 1 1 3 5 4 2 3 0 2 4 3 9 6 8 4 4 4 3 4 2 9 10 14 15 15 15 17
10 9 8 10 12 13 13 10 5 4 5 8 7 5 6 5 8 6 3 3 3 5 5 6 4 2 2 5 6 4 4 4 6 2 2 2 5 5 9 13 19 20 20 21 20
11 10 9 8 10 11 11 6 2 3 5 7 6 5 5 8 13 7 7 5 5 4 4 4 5 1 1 3 5 5 2 4 6 4 3 3 2 5 10 15 20 25 26 25 27
11 12 10 9 9 8 7 3 3 5 7 7 7 3 9 10 11 11 8 4 1 2 4 3 1 2 3 4 1 4 4 4 5 4 2 2 2 4 10 17 17 21 22 25 28
12 11 12 10 9 8 4 1 3 4 12 10 6 6 4 9 8 9 10 7 8 4 2 1 3 3 6 6 4 2 3 4 4 2 2 2 3 2 4 13 19 22 24 25 29
14 11 12 11 9 7 3 1 3 5 9 19 19 13 11 8 5 9 12 6 4 5 2 3 5 8 7 0 1 1 2 4 6 5 4 4 2 3 4 2 12 18 26 27 27
15 14 11 11 9 6 3 3 5 8 4 9 22 23 13 12 6 8 15 5 5 3 4 5 4 5 1 1 3 2 4 3 5 6 3 5 2 4 4 4 10 17 25 26 23
16 15 14 10 8 6 4 0 7 3 2 5 7 8 16 9 3 11 9 5 2 4 4 4 1 3 2 2 3 3 7 5 3 3 2 3 4 3 5 8 4 14 22 22 25
16 16 13 12 6 4 2 5 2 4 3 3 5 8 13 9 9 7 7 5 4 3 5 5 4 2 2 4 3 8 3 6 3 3 2 4 3 5 5 7 9 19 22 25 23
19 16 16 14 14 6 5 2 6 4 7 3 7 6 6 5 5 10 4 4 2 1 1 5 1 4 4 2 4 5 2 7 5 3 2 4 3 4 4 4 6 17 21 23 25
16 19 19 16 10 8 7 7 3 5 1 6 6 6 5 6 4 6 5 3 4 3 1 2 3 2 2 2 3 8 5 2 4 4 4 1 2 6 2 4 5 12 17 21 21
18 21 24 23 17 10 9 3 5 7 7 2 5 6 8 7 6 7 6 3 3 3 2 4 4 5 2 3 2 1 5 4 5 1 4 4 2 5 4 8 7 8 12 16 19
24 27 30 27 19 15 9 4 9 7 6 9 4 4 5 5 6 4 7 5 7 7 6 4 3 1 2 2 4 1 1 3 5 3 3 3 2 3 4 3 5 8 11 14 15
22 30 36 28 20 21 3 11 8 7 4 4 11 6 9 8 6 7 8 4 6 4 3 5 1 4 3 2 1 2 5 2 3 2 2 4 3 4 4 4 3 5 8 9 11
19 14 16 28 22 18 9 8 8 18 5 6 8 7 7 8 8 7 7 1 6 6 5 3 3 2 3 4 6 1 1 1 3 4 4 1 5 5 6 5 6 1 4 6 9
19 4 13 23 13 7 10 8 11 16 20 7 4 5 9 10 7 7 10 5 13 12 7 3 4 3 5 2 2 4 5 5 4 3 1 3 5 3 7 10 13 8 4 7 10
8 10 19 23 7 10 4 8 11 12 6 8 8 7 4 8 5 4 5 1 14 6 8 6 2 1 5 4 3 3 4 4 4 2 4 5 5 3 5 10 13 14 10 11 12
7 3 6 23 24 8 11 13 21 21 7 7 7 4 4 3 4 7 4 2 6 6 9 6 3 5 6 4 4 4 5 5 6 3 3 5 3 5 7 7 13 15 14 13 14
15 6 7 5 15 21 8 8 18 15 20 19 6 10 8 5 3 5 4 3 4 10 4 5 5 5 6 7 3 6 6 8 8 6 6 4 7 7 13 12 20 20 19 18 16
10 6 6 2 31 24 20 11 18 20 12 14 13 9 8 8 8 9 9 5 6 3 6 2 2 3 4 4 8 6 9 10 9 6 7 5 9 7 17 21 18 24 25 22 21
23 19 11 10 8 14 20 27 19 13 17 21 17 10 11 11 15 13 14 19 14 10 7 7 5 3 4 3 3 6 9 10 6 6 10 9 10 6 4 16 25 28 28 26 25
Wind_Direction
336 334 336 327 323 322 318 317 309 313 315 308 278 231 227 244 332 15 50 72 84 81 76 71 73 88 95 114 128 88 63 263 265 17 279 332 354 352 344 353 2 14 12 347 338
335 335 335 325 325 319 314 315 308 305 297 294 261 233 238 233 201 304 83 71 96 74 48 29 35 71 119 200 156 102 110 240 215 257 249 298 320 317 338 338 329 334 346 352 336
329 328 331 331 328 321 321 316 310 300 291 264 239 251 248 220 241 227 112 74 100 64 41 31 15 240 170 182 197 174 186 220 279 301 277 296 310 319 313 311 302 307 319 315 297
326 326 330 334 325 324 319 314 313 303 270 245 220 260 160 180 204 194 134 74 88 54 41 26 55 120 95 323 289 229 243 253 281 287 303 286 298 303 289 289 303 301 301 312 304
319 322 327 325 331 330 322 317 311 294 254 229 205 207 167 227 237 188 149 75 41 53 25 23 50 54 63 299 335 211 264 276 284 287 287 298 286 276 326 340 329 313 331 5 357
324 327 333 329 332 330 323 317 308 282 240 219 209 219 229 248 204 190 152 113 35 359 356 30 31 342 295 267 156 287 288 293 289 273 289 267 293 21 360 27 44 36 14 11 2
314 323 329 332 329 328 326 319 308 267 221 209 212 220 236 239 201 196 199 28 329 347 3 344 332 358 286 309 310 295 306 331 334 286 199 216 332 21 352 27 30 15 2 352 356
303 311 322 332 334 327 328 322 308 246 202 201 207 219 249 220 211 227 213 280 275 296 349 17 8 308 237 307 346 352 46 10 306 151 232 131 264 12 24 30 19 9 357 349 339
303 303 313 326 334 330 331 323 275 221 195 201 207 226 254 206 212 224 229 254 300 278 304 310 319 357 4 66 15 360 303 288 313 310 175 159 284 341 27 37 13 359 348 331 320
299 304 305 316 328 328 333 307 253 228 215 210 212 254 223 211 222 208 236 228 271 252 271 221 180 53 32 73 232 255 291 282 255 293 344 78 178 323 29 35 10 351 344 335 331
295 298 301 303 318 324 329 39 278 247 232 219 217 217 205 183 198 229 216 225 248 236 211 231 84 233 224 206 205 212 241 263 265 264 333 174 151 308 351 28 13 353 341 336 328
292 293 292 296 306 308 314 262 296 287 297 248 236 236 239 211 213 211 199 214 162 211 154 18 225 224 215 221 175 158 241 295 290 265 196 154 155 262 298 343 21 355 343 336 326
286 290 287 289 299 281 240 299 306 291 263 274 226 224 208 214 224 202 191 203 211 227 194 167 238 185 172 66 32 270 195 229 233 321 27 104 302 268 278 290 338 351 342 337 335
278 279 287 285 279 237 280 348 322 202 20 258 189 217 197 177 247 192 194 206 211 217 188 220 214 168 213 225 143 281 211 240 272 38 249 62 283 302 321 322 345 344 347 342 345
272 271 272 279 244 245 220 329 214 151 332 191 162 169 174 172 150 188 186 182 197 190 94 251 174 172 200 212 168 239 228 264 221 184 52 331 63 264 344 333 343 349 343 341 351
270 265 260 264 266 219 224 314 159 67 249 201 150 162 136 184 195 155 176 188 198 152 179 221 156 158 211 266 197 296 18 25 55 82 37 285 125 291 342 322 343 342 341 345 357
258 263 252 242 247 206 189 156 75 170 268 194 184 159 162 177 191 166 173 182 167 125 246 37 216 218 175 336 344 43 49 343 11 14 219 324 55 251 336 58 342 334 340 355 10
239 262 253 237 211 216 189 90 192 214 200 144 135 122 174 160 218 183 149 179 212 119 126 153 306 175 191 193 199 339 136 152 188 174 265 327 299 277 108 90 12 353 9 21 26
265 268 251 236 219 208 215 189 192 206 190 149 74 132 223 170 152 147 190 204 191 171 162 157 254 142 169 162 127 174 54 161 103 27 52 248 257 301 111 145 14 12 23 35 41
278 262 253 241 220 197 170 234 207 210 137 124 174 172 181 190 148 165 183 187 179 163 152 196 142 211 142 106 138 156 162 57 13 94 278 292 260 236 279 99 43 12 13 48 60
284 243 261 241 212 189 211 214 235 227 209 166 202 174 193 176 169 181 197 193 167 151 128 134 101 255 117 199 182 140 255 133 129 142 166 274 265 209 199 140 147 161 63 72 78
262 207 229 215 172 198 214 173 231 224 234 234 171 193 178 167 161 187 190 203 171 146 160 167 140 201 211 266 211 191 189 141 122 235 172 148 275 153 171 138 149 157 146 109 112
244 233 209 176 221 218 253 211 233 223 203 169 210 194 192 166 149 157 155 76 160 141 159 173 180 91 344 351 343 208 208 144 121 83 204 144 259 149 170 137 164 154 152 136 125
247 236 180 174 214 267 224 217 216 230 256 192 179 171 138 146 18 155 123 150 144 121 136 130 152 181 193 203 147 187 191 177 140 135 202 225 213 212 199 187 173 168 159 156 150
218 212 173 180 208 223 256 225 213 224 210 205 227 174 164 141 107 122 113 98 42 147 106 127 201 186 239 247 238 214 206 192 192 187 171 256 203 211 204 194 187 175 162 163 163
226 164 194 308 212 202 220 244 234 215 193 204 209 181 178 160 178 188 136 179 182 188 151 166 222 192 283 262 217 241 231 218 210 206 252 226 256 215 213 190 180 179 172 173 175
233 234 211 205 206 209 207 215 234 235 222 225 206 170 191 199 192 201 169 164 160 148 160 153 147 128 255 350 354 291 223 200 189 191 192 210 224 155 155 177 189 188 185 184 181
Height
1536 1535 1534 1533 1531 1529 1528 1526 1526 1525 1525 1525 1524 1526 1528 1528 1526 1524 1523 1522 1520 1518 1518 1516 1516 1516 1516 1517 1518 1518 1528 1533 1523 1521 1519 1513 1512 1510 1510 1508 1505 1503 1501 1500 1500
1535 1534 1533 1532 1530 1529 1528 1526 1524 1524 1525 1524 1525 1525 1526 1527 1525 1525 1523 1521 1519 1519 1518 1516 1516 1516 1516 1516 1517 1518 1531 1525 1517 1515 1515 1513 1512 1509 1508 1506 1504 1502 1501 1501 1499
1534 1533 1531 1531 1529 1528 1526 1524 1524 1524 1523 1524 1524 1525 1525 1525 1525 1523 1521 1520 1520 1518 1516 1516 1515 1515 1515 1516 1517 1517 1523 1516 1513 1512 1511 1509 1508 1508 1507 1506 1502 1500 1499 1499 1498
1532 1532 1530 1528 1528 1526 1524 1523 1522 1522 1523 1524 1524 1524 1523 1524 1528 1521 1520 1520 1519 1518 1516 1516 1514 1514 1515 1516 1515 1517 1513 1513 1511 1510 1509 1507 1506 1505 1503 1501 1499 1498 1498 1497 1496
1531 1530 1530 1529 1526 1524 1523 1522 1521 1521 1521 1522 1522 1523 1523 1523 1521 1520 1520 1519 1518 1517 1516 1515 1514 1514 1516 1515 1514 1515 1512 1510 1509 1507 1506 1506 1504 1505 1501 1496 1495 1496 1496 1496 1495
1530 1529 1527 1527 1525 1523 1522 1520 1519 1518 1519 1520 1520 1522 1522 1522 1519 1519 1519 1518 1518 1517 1516 1515 1514 1514 1515 1514 1515 1512 1511 1508 1504 1502 1504 1505 1503 1502 1502 1499 1495 1495 1495 1494 1494
1528 1527 1526 1525 1524 1522 1520 1519 1517 1517 1517 1518 1519 1520 1520 1519 1517 1518 1518 1518 1517 1516 1515 1514 1514 1515 1514 1513 1512 1511 1511 1506 1502 1501 1502 1503 1505 1505 1502 1498 1496 1494 1493 1492 1491
1527 1525 1524 1523 1521 1521 1518 1516 1516 1516 1516 1517 1518 1519 1516 1515 1516 1516 1516 1516 1515 1515 1515 1514 1514 1514 1514 1513 1511 1512 1514 1521 1506 1502 1502 1505 1513 1505 1502 1495 1495 1493 1491 1491 1491
1526 1524 1522 1520 1518 1517 1516 1515 1515 1516 1516 1516 1518 1518 1515 1513 1514 1514 1515 1514 1514 1514 1514 1514 1514 1514 1515 1517 1523 1521 1526 1521 1513 1503 1502 1505 1508 1507 1503 1496 1494 1492 1489 1487 1488
1523 1522 1521 1519 1517 1515 1514 1514 1515 1516 1516 1516 1516 1519 1513 1510 1511 1511 1513 1513 1513 1513 1513 1514 1514 1516 1518 1523 1535 1526 1526 1520 1518 1506 1502 1507 1509 1507 1503 1499 1496 1493 1490 1487 1483
1520 1520 1519 1517 1515 1514 1514 1514 1518 1518 1514 1510 1508 1506 1506 1508 1509 1509 1510 1511 1511 1512 1514 1513 1518 1522 1516 1514 1512 1515 1519 1519 1510 1504 1505 1505 1508 1506 1503 1499 1496 1493 1490 1488 1482
1518 1516 1516 1515 1514 1513 1513 1512 1514 1516 1511 1505 1505 1505 1506 1506 1507 1507 1509 1511 1510 1513 1512 1517 1520 1510 1509 1509 1510 1512 1515 1516 1510 1502 1504 1505 1509 1505 1503 1501 1498 1496 1491 1488 1484
1516 1515 1512 1514 1512 1512 1510 1511 1512 1513 1512 1499 1497 1499 1502 1504 1503 1503 1506 1506 1507 1509 1508 1516 1508 1505 1506 1510 1511 1512 1514 1513 1513 1505 1500 1506 1512 1507 1502 1501 1499 1497 1493 1487 1483
1512 1511 1511 1510 1513 1510 1510 1509 1509 1511 1518 1500 1494 1495 1498 1500 1501 1501 1502 1505 1505 1506 1506 1508 1503 1505 1507 1509 1510 1515 1504 1504 1506 1512 1520 1506 1526 1510 1505 1503 1500 1497 1492 1487 1481
1506 1508 1508 1509 1508 1508 1510 1508 1508 1511 1534 1491 1491 1492 1493 1498 1498 1499 1500 1501 1503 1503 1506 1508 1504 1505 1507 1506 1506 1510 1501 1503 1502 1509 1514 1512 1524 1514 1509 1505 1502 1498 1492 1486 1479
1502 1503 1504 1505 1506 1505 1506 1507 1509 1520 1525 1492 1488 1490 1493 1494 1496 1497 1498 1499 1500 1501 1502 1504 1502 1503 1503 1501 1502 1501 1502 1508 1509 1516 1528 1514 1519 1517 1514 1511 1505 1499 1494 1487 1481
1497 1497 1498 1499 1504 1503 1503 1506 1518 1521 1485 1488 1487 1487 1490 1494 1495 1494 1497 1500 1504 1510 1508 1504 1503 1500 1500 1503 1501 1504 1516 1546 1532 1541 1534 1513 1523 1516 1509 1510 1509 1503 1497 1490 1485
1490 1491 1491 1493 1498 1501 1502 1505 1515 1487 1483 1476 1479 1485 1491 1489 1492 1493 1496 1503 1497 1500 1512 1515 1517 1502 1499 1502 1505 1506 1514 1544 1546 1550 1543 1516 1528 1514 1508 1510 1509 1505 1499 1494 1487
1482 1482 1481 1486 1493 1497 1501 1503 1489 1481 1469 1475 1480 1487 1490 1484 1487 1491 1496 1498 1495 1494 1508 1512 1507 1498 1498 1499 1502 1506 1516 1512 1532 1533 1541 1527 1512 1508 1508 1511 1509 1505 1501 1497 1493
1476 1474 1471 1481 1487 1490 1495 1482 1472 1466 1464 1467 1479 1478 1488 1486 1486 1490 1493 1488 1492 1491 1492 1500 1509 1499 1498 1499 1501 1502 1507 1519 1530 1543 1532 1526 1516 1517 1506 1508 1509 1506 1502 1499 1498
1473 1465 1466 1472 1479 1483 1479 1476 1467 1457 1461 1465 1469 1476 1475 1480 1482 1487 1487 1485 1485 1491 1491 1495 1504 1504 1499 1503 1504 1508 1510 1511 1517 1523 1530 1530 1520 1503 1503 1504 1508 1507 1503 1500 1498
1467 1463 1460 1460 1468 1464 1463 1462 1462 1455 1455 1459 1459 1463 1468 1472 1478 1481 1482 1478 1480 1484 1493 1493 1506 1511 1502 1496 1495 1498 1501 1508 1526 1518 1523 1528 1517 1496 1499 1502 1504 1505 1504 1502 1500
1458 1454 1454 1454 1456 1459 1456 1453 1454 1454 1450 1452 1457 1456 1459 1466 1474 1473 1476 1476 1477 1482 1488 1492 1505 1515 1507 1503 1497 1498 1497 1500 1510 1517 1518 1528 1513 1499 1501 1502 1504 1503 1504 1503 1503
1454 1449 1447 1445 1449 1454 1456 1449 1448 1446 1448 1446 1446 1451 1455 1460 1462 1474 1478 1479 1479 1481 1484 1487 1499 1500 1505 1494 1492 1497 1495 1496 1503 1520 1514 1513 1500 1501 1501 1501 1503 1502 1503 1504 1504
1444 1437 1436 1437 1444 1448 1449 1442 1443 1442 1439 1442 1445 1442 1450 1462 1464 1471 1476 1480 1482 1482 1484 1488 1498 1498 1494 1491 1490 1489 1490 1494 1499 1499 1504 1495 1497 1490 1491 1494 1497 1500 1502 1503 1504
1430 1431 1434 1430 1435 1434 1439 1439 1434 1432 1431 1432 1435 1438 1442 1452 1452 1465 1468 1475 1475 1483 1485 1488 1494 1491 1490 1485 1489 1489 1486 1487 1489 1490 1493 1491 1491 1481 1481 1489 1495 1497 1499 1501 1502
1422 1423 1427 1423 1427 1428 1425 1429 1427 1431 1425 1426 1429 1434 1438 1436 1441 1444 1448 1452 1458 1470 1482 1488 1492 1498 1495 1488 1484 1490 1477 1477 1477 1477 1478 1488 1475 1476 1481 1483 1487 1491 1494 1496 1498